FW1746 Weather Reports


time (UTC)temp
C
wind
direction
speed
KPH
gust
KPH
rain 1hr
cm
rain 24hr
cm
rain mn
cm
humidity
%
barometer
mb
20260506223051 6 263 6.4 14.5 0.00 0.00 0.00 51 1014.0
20260506221537 6 258 3.2 11.3 0.00 0.00 0.00 49 1014.0
20260506220030 7 237 6.4 19.3 0.00 0.00 0.00 48 1013.8
20260506214528 7 225 9.7 19.3 0.00 0.00 0.00 47 1013.6
20260506213026 7 262 9.7 19.3 0.00 0.00 0.00 47 1013.5
20260506211524 7 259 11.3 22.5 0.00 0.00 0.00 46 1013.3
20260506210021 7 232 14.5 24.1 0.00 0.00 0.00 46 1013.3
20260506204519 7 238 11.3 19.3 0.00 0.00 0.00 47 1013.2
20260506203021 8 238 12.9 22.5 0.00 0.00 0.00 47 1013.1
20260506201513 8 229 9.7 19.3 0.00 0.00 0.00 46 1013.0
20260506200015 8 235 9.7 22.5 0.00 0.00 0.00 45 1013.0
20260506194513 9 243 8.0 22.5 0.00 0.00 0.00 45 1012.9
20260506193010 9 271 8.0 19.3 0.00 0.00 0.00 44 1012.8
20260506191510 9 242 6.4 14.5 0.00 0.00 0.00 50 1012.6
20260506190100 9 234 8.0 19.3 0.00 0.00 0.00 56 1012.5
20260506184558 10 195 0.0 4.8 0.00 0.00 0.00 65 1012.4
20260506183057 10 159 0.0 3.2 0.00 0.00 0.00 65 1012.2
20260506181555 10 159 0.0 4.8 0.00 0.00 0.00 66 1012.2
20260506180005 11 156 0.0 4.8 0.00 0.00 0.00 67 1012.1
20260506174504 11 159 1.6 6.4 0.00 0.00 0.00 60 1012.1
20260506173004 12 160 3.2 9.7 0.00 0.00 0.00 57 1011.9
20260506171505 12 157 4.8 12.9 0.00 0.00 0.00 55 1011.9
20260506170059 12 176 4.8 11.3 0.00 0.00 0.00 54 1012.0
20260506164557 12 161 6.4 14.5 0.00 0.00 0.00 52 1012.1
20260506163100 12 173 6.4 17.7 0.00 0.00 0.00 49 1012.2
20260506161558 12 173 6.4 16.1 0.00 0.00 0.00 48 1012.3
20260506160106 12 173 8.0 17.7 0.00 0.00 0.00 47 1012.3
20260506154553 11 150 6.4 14.5 0.00 0.00 0.00 64 1012.5
20260506153051 11 166 4.8 8.0 0.00 0.00 0.00 69 1012.5
20260506151549 10 126 9.7 16.1 0.00 0.00 0.00 72 1012.6
20260506150007 10 130 8.0 14.5 0.00 0.00 0.00 72 1012.7
20260506144501 11 149 6.4 14.5 0.00 0.00 0.00 69 1012.9
20260506143059 12 134 4.8 12.9 0.00 0.00 0.00 66 1013.0
20260506141558 12 135 8.0 14.5 0.00 0.00 0.00 62 1013.0
20260506140042 12 144 9.7 14.5 0.00 0.00 0.00 60 1013.2
20260506134605 12 175 9.7 17.7 0.00 0.00 0.00 56 1013.3
20260506133030 12 115 9.7 16.1 0.00 0.00 0.00 55 1013.4
20260506131528 12 150 9.7 19.3 0.00 0.00 0.00 55 1013.6
20260506130056 12 156 9.7 17.7 0.00 0.00 0.00 47 1013.6
20260506124552 11 160 11.3 22.5 0.00 0.00 0.00 43 1013.6
20260506123048 11 179 9.7 16.1 0.00 0.00 0.00 46 1013.7
20260506121544 11 195 9.7 17.7 0.00 0.00 0.00 47 1013.8
20260506120014 10 165 9.7 19.3 0.00 0.00 0.00 51 1013.9
20260506114521 10 142 8.0 16.1 0.00 0.00 0.00 55 1013.9
20260506113008 11 157 8.0 16.1 0.00 0.00 0.00 54 1013.9
20260506111507 10 156 8.0 16.1 0.00 0.00 0.00 53 1013.9
20260506110014 10 157 6.4 12.9 0.00 0.00 0.00 56 1014.0
20260506104508 10 145 6.4 12.9 0.00 0.00 0.00 54 1014.0
20260506103018 8 163 6.4 12.9 0.00 0.00 0.00 56 1014.0
20260506101506 8 138 11.3 16.1 0.00 0.00 0.00 52 1014.0
20260506100006 8 131 8.0 14.5 0.00 0.00 0.00 50 1014.0
20260506094509 8 131 8.0 14.5 0.00 0.00 0.00 50 1013.9
20260506093005 8 128 9.7 14.5 0.00 0.00 0.00 51 1014.0
20260506091505 8 134 4.8 14.5 0.00 0.00 0.00 53 1014.0
20260506090006 8 144 9.7 12.9 0.00 0.00 0.00 51 1014.0
20260506084506 8 146 8.0 12.9 0.00 0.00 0.00 49 1014.0
20260506083006 8 166 6.4 12.9 0.00 0.00 0.00 50 1014.0
20260506081506 8 122 3.2 11.3 0.00 0.00 0.00 49 1014.0
20260506073019 7 68 4.8 9.7 0.00 0.00 0.00 49 1014.1
20260506071520 7 54 3.2 6.4 0.00 0.00 0.00 51 1014.0
20260506061510 5 290 1.6 12.9 0.00 0.00 0.00 56 1013.9
20260506050108 2 240 3.2 9.7 0.00 0.00 0.00 68 1014.0
20260506044601 2 240 3.2 8.0 0.00 0.00 0.00 69 1014.0
20260506043059 2 277 0.0 12.9 0.00 0.00 0.00 69 1014.0
20260506041603 2 273 4.8 12.9 0.00 0.00 0.00 69 1013.9
20260506040101 1 254 8.0 14.5 0.00 0.00 0.00 70 1013.9
20260506034601 1 257 4.8 14.5 0.00 0.00 0.00 70 1013.7
20260506033054 2 254 6.4 14.5 0.00 0.00 0.00 69 1013.8
20260506031552 2 254 6.4 11.3 0.00 0.00 0.00 68 1013.7
20260506030053 2 242 6.4 17.7 0.00 0.00 0.00 68 1013.6
20260506024559 2 246 8.0 17.7 0.00 0.00 0.00 68 1013.6
20260506023048 2 236 8.0 17.7 0.00 0.00 0.00 68 1013.7
20260506021545 2 246 8.0 16.1 0.00 0.00 0.00 68 1013.7
20260506020040 2 265 6.4 16.1 0.00 0.00 0.00 68 1013.6
20260506014535 2 248 4.8 14.5 0.00 0.00 0.00 67 1013.7
20260506013034 3 242 4.8 14.5 0.00 0.00 0.00 66 1013.6
20260506011558 3 239 4.8 16.1 0.00 0.00 0.00 66 1013.5
20260506010047 3 244 8.0 19.3 0.00 0.00 0.00 65 1013.3
20260506004558 3 242 4.8 11.3 0.00 0.00 0.00 66 1013.4
20260506003041 3 236 3.2 16.1 0.00 0.00 0.00 65 1013.4
20260506001543 3 236 4.8 20.9 0.00 0.00 0.00 64 1013.4
20260506000056 3 246 9.7 16.1 0.00 0.00 0.00 63 1013.4
20260505234541 3 229 3.2 16.1 0.00 0.00 0.00 63 1013.4
20260505233028 3 237 4.8 14.5 0.00 0.00 0.00 63 1013.5
20260505231526 4 235 6.4 16.1 0.00 0.00 0.00 61 1013.4
20260505230018 4 234 4.8 14.5 0.00 0.00 0.00 60 1013.5
20260505224511 4 238 6.4 14.5 0.00 0.00 0.00 59 1013.5